Regional Weather Roundup
Issued by NWS

Home | Current Version | Previous Version | Text Only | Print | Product List | Glossary Off
Versions: 1 2 3 4 5 6 7 8 9 10 11 12 13 14 15 16 17 18 19 20 21 22 23 24 25 26 27 28 29 30 31 32 33 34 35 36 37 38 39 40 41 42 43 44 45 46 47 48 49 50

423
ASUS43 KLMK 021902
RWRKY
KENTUCKY REGIONAL WEATHER ROUNDUP
NATIONAL WEATHER SERVICE LOUISVILLE KY
300 PM EDT MON MAY 02 2016

NOTE "FAIR" INDICATES FEW OR NO CLOUDS BELOW 12,000 FEET
WITH NO SIGNIFICANT WEATHER AND/OR OBSTRUCTIONS TO VISIBILITY.

KYZ001>023-026-027-061>063-070>075-022000-
WESTERN AND SOUTH CENTRAL KENTUCKY

CITY           SKY/WX    TMP DP  RH WIND       PRES   REMARKS
PADUCAH        CLOUDY    69  51  52 MISG      29.97F
HENDERSON      CLOUDY    64  52  63 NW6       29.98F
OWENSBORO      CLOUDY    63  53  69 NW7       29.98F
HOPKINSVILLE   NOT AVBL
BOWLING GREEN  LGT RAIN  59  56  89 VRB3      29.96F
GLASGOW        NOT AVBL
$$

KYZ024-025-028>034-038-045-046-053-022000-
NORTH CENTRAL KENTUCKY

CITY           SKY/WX    TMP DP  RH WIND       PRES   REMARKS
LOUISVILLE/SDF CLOUDY    63  53  70 W13       29.98R
LOUISVILLE/LOU CLOUDY    63  53  70 W10       29.99S
FORT KNOX      CLOUDY    63  54  73 SW7       29.96F
$$

KYZ035>037-039>044-047>052-055>060-089>105-022000-
NORTHEAST KENTUCKY

CITY           SKY/WX    TMP DP  RH WIND       PRES   REMARKS
LEXINGTON      CLOUDY    62  57  83 W9        29.97R
COVINGTON      CLOUDY    64  53  67 W9        29.96F
FRANKFORT      CLOUDY    67  55  65 SW9       29.95R
$$

KYZ054-064>069-076>088-106>120-022000-
SOUTHEAST KENTUCKY

CITY           SKY/WX    TMP DP  RH WIND       PRES   REMARKS
JACKSON        TSTM      61  58  90 NW7       29.99R FOG
LONDON         CLOUDY    62  59  90 N9G17     29.98R
SOMERSET       NOT AVBL
MIDDLESBORO    NOT AVBL
MONTICELLO     LGT RAIN  61  58  90 N17       30.00S
$$





USA.gov is the U.S. government's official web portal to all federal, state and local government web resources and services.